| time (UTC) | temp F | wind direction | speed MPH | gust MPH | rain 1hr in | rain 24hr in | rain mn in | humidity % | barometer mb |
| 20260504043635 | 54 | 139 | 0.0 | 2.0 | 0.00 | 0.43 | 0.00 | 98 | 1012.5 |
| 20260504043136 | 54 | 139 | 0.0 | 2.0 | 0.00 | 0.43 | 0.00 | 98 | 1012.6 |
| 20260504042640 | 54 | 139 | 0.0 | 2.0 | 0.00 | 0.43 | 0.00 | 98 | 1012.6 |
| 20260504042131 | 54 | 139 | 0.0 | 1.0 | 0.00 | 0.43 | 0.00 | 98 | 1012.7 |
| 20260504041633 | 54 | 139 | 0.0 | 2.0 | 0.00 | 0.43 | 0.00 | 98 | 1012.7 |
| 20260504041131 | 54 | 139 | 1.0 | 2.0 | 0.00 | 0.43 | 0.00 | 98 | 1012.7 |
| 20260504040701 | 54 | 139 | 1.0 | 4.0 | 0.00 | 0.43 | 0.00 | 98 | 1012.8 |
| 20260504035657 | 54 | 139 | 1.0 | 2.0 | 0.00 | 0.43 | 0.00 | 98 | 1012.7 |
| 20260504034637 | 54 | 139 | 0.0 | 2.0 | 0.00 | 0.43 | 0.00 | 98 | 1012.7 |
| 20260504034209 | 54 | 139 | 1.0 | 2.0 | 0.00 | 0.43 | 0.00 | 98 | 1012.8 |
| 20260504033135 | 54 | 139 | 1.0 | 2.0 | 0.00 | 0.43 | 0.00 | 98 | 1012.8 |
| 20260504032632 | 54 | 139 | 0.0 | 2.0 | 0.00 | 0.43 | 0.00 | 98 | 1012.8 |
| 20260504032134 | 54 | 139 | 0.0 | 1.0 | 0.00 | 0.43 | 0.00 | 98 | 1012.9 |
| 20260504031656 | 54 | 139 | 0.0 | 1.0 | 0.00 | 0.43 | 0.00 | 98 | 1012.9 |
| 20260504030632 | 53 | 139 | 0.0 | 2.0 | 0.00 | 0.43 | 0.00 | 98 | 1013.0 |
| 20260504030132 | 53 | 139 | 0.0 | 2.0 | 0.00 | 0.43 | 0.00 | 98 | 1012.9 |
| 20260504025630 | 53 | 139 | 0.0 | 1.0 | 0.00 | 0.43 | 0.00 | 98 | 1012.9 |
| 20260504025130 | 53 | 139 | 0.0 | 1.0 | 0.00 | 0.43 | 0.00 | 98 | 1012.9 |
| 20260504024630 | 53 | 139 | 0.0 | 1.0 | 0.00 | 0.43 | 0.00 | 98 | 1012.9 |
| 20260504024130 | 53 | 139 | 0.0 | 2.0 | 0.00 | 0.43 | 0.00 | 98 | 1012.9 |
| 20260504023632 | 53 | 139 | 1.0 | 2.0 | 0.00 | 0.43 | 0.00 | 98 | 1012.7 |
| 20260504023129 | 53 | 139 | 1.0 | 2.0 | 0.00 | 0.43 | 0.00 | 98 | 1012.7 |
| 20260504022632 | 53 | 139 | 1.0 | 2.0 | 0.00 | 0.43 | 0.00 | 98 | 1012.6 |
| 20260504022131 | 52 | 139 | 0.0 | 2.0 | 0.00 | 0.43 | 0.00 | 98 | 1012.6 |
| 20260504021631 | 52 | 139 | 0.0 | 1.0 | 0.00 | 0.43 | 0.00 | 98 | 1012.6 |
| 20260504021141 | 52 | 139 | 1.0 | 2.0 | 0.00 | 0.43 | 0.00 | 98 | 1012.6 |
| 20260504020631 | 52 | 139 | 1.0 | 2.0 | 0.00 | 0.43 | 0.00 | 98 | 1012.6 |
| 20260504020129 | 52 | 139 | 1.0 | 2.0 | 0.00 | 0.43 | 0.00 | 97 | 1012.6 |
| 20260504015628 | 53 | 152 | 1.0 | 2.0 | 0.00 | 0.43 | 0.00 | 97 | 1012.5 |
| 20260504015204 | 53 | 152 | 1.0 | 2.0 | 0.00 | 0.43 | 0.00 | 97 | 1012.5 |
| 20260504014206 | 53 | 152 | 0.0 | 2.0 | 0.00 | 0.43 | 0.00 | 97 | 1012.6 |
| 20260504013136 | 53 | 152 | 0.0 | 2.0 | 0.00 | 0.43 | 0.00 | 98 | 1012.7 |
| 20260504012640 | 53 | 152 | 0.0 | 0.0 | 0.00 | 0.43 | 0.00 | 98 | 1012.6 |
| 20260504012130 | 52 | 152 | 0.0 | 1.0 | 0.00 | 0.43 | 0.00 | 97 | 1012.6 |
| 20260504011629 | 53 | 152 | 0.0 | 1.0 | 0.00 | 0.43 | 0.00 | 97 | 1012.6 |
| 20260504011130 | 53 | 152 | 0.0 | 1.0 | 0.00 | 0.43 | 0.00 | 97 | 1012.5 |
| 20260504010801 | 53 | 152 | 0.0 | 1.0 | 0.00 | 0.43 | 0.00 | 97 | 1012.4 |
| 20260504004628 | 53 | 184 | 1.0 | 1.0 | 0.00 | 0.43 | 0.00 | 97 | 1012.5 |
| 20260504004126 | 53 | 184 | 0.0 | 1.0 | 0.00 | 0.43 | 0.00 | 97 | 1012.4 |
| 20260504003642 | 54 | 185 | 0.0 | 1.0 | 0.00 | 0.43 | 0.00 | 97 | 1012.3 |
| 20260504002701 | 54 | 184 | 1.0 | 2.0 | 0.00 | 0.43 | 0.00 | 97 | 1012.2 |
| 20260504001615 | 54 | 184 | 0.0 | 2.0 | 0.00 | 0.43 | 0.00 | 97 | 1012.3 |
| 20260504001110 | 54 | 184 | 1.0 | 2.0 | 0.00 | 0.43 | 0.00 | 97 | 1012.4 |
| 20260504000611 | 54 | 184 | 1.0 | 2.0 | 0.00 | 0.43 | 0.00 | 97 | 1012.4 |
| 20260504000141 | 55 | 181 | 1.0 | 2.0 | 0.00 | 0.43 | 0.00 | 97 | 1012.5 |
| 20260503235146 | 55 | 181 | 0.0 | 2.0 | 0.00 | 0.43 | 0.00 | 97 | 1012.4 |
| 20260503234829 | 55 | 181 | 1.0 | 3.0 | 0.00 | 0.43 | 0.00 | 97 | 1012.5 |
| 20260503231604 | 56 | 181 | 3.0 | 6.0 | 0.00 | 0.43 | 0.00 | 97 | 1012.6 |
| 20260503231104 | 56 | 179 | 4.0 | 7.0 | 0.00 | 0.43 | 0.00 | 97 | 1012.8 |
| 20260503230613 | 56 | 148 | 4.0 | 7.0 | 0.00 | 0.43 | 0.00 | 97 | 1012.7 |
| 20260503230135 | 56 | 172 | 4.0 | 6.0 | 0.00 | 0.43 | 0.00 | 97 | 1012.7 |
| 20260503225100 | 55 | 186 | 2.0 | 6.0 | 0.00 | 0.43 | 0.00 | 97 | 1012.8 |
| 20260503224600 | 55 | 172 | 2.0 | 6.0 | 0.00 | 0.43 | 0.00 | 97 | 1012.7 |
| 20260503224120 | 55 | 166 | 1.0 | 4.0 | 0.00 | 0.43 | 0.00 | 97 | 1012.7 |
| 20260503223126 | 55 | 207 | 0.0 | 2.0 | 0.00 | 0.43 | 0.00 | 96 | 1012.6 |
| 20260503222126 | 55 | 207 | 0.0 | 2.0 | 0.00 | 0.43 | 0.00 | 96 | 1012.7 |
| 20260503221055 | 55 | 207 | 2.0 | 4.0 | 0.00 | 0.43 | 0.00 | 97 | 1012.8 |
| 20260503220553 | 55 | 202 | 2.0 | 3.0 | 0.00 | 0.43 | 0.00 | 96 | 1012.7 |
| 20260503220051 | 55 | 205 | 1.0 | 3.0 | 0.00 | 0.43 | 0.00 | 96 | 1012.6 |
| 20260503215550 | 55 | 183 | 1.0 | 3.0 | 0.00 | 0.43 | 0.43 | 96 | 1012.6 |
| 20260503215049 | 56 | 193 | 1.0 | 2.0 | 0.00 | 0.43 | 0.43 | 96 | 1012.6 |
| 20260503214621 | 56 | 187 | 1.0 | 2.0 | 0.00 | 0.43 | 0.43 | 96 | 1012.5 |
| 20260503213551 | 56 | 187 | 2.0 | 3.0 | 0.00 | 0.43 | 0.43 | 96 | 1012.5 |
| 20260503213046 | 56 | 177 | 2.0 | 5.0 | 0.00 | 0.44 | 0.43 | 96 | 1012.6 |
| 20260503212547 | 56 | 192 | 2.0 | 5.0 | 0.00 | 0.46 | 0.43 | 96 | 1012.5 |
| 20260503212049 | 56 | 181 | 2.0 | 5.0 | 0.00 | 0.49 | 0.43 | 96 | 1012.5 |
| 20260503211548 | 56 | 167 | 2.0 | 5.0 | 0.00 | 0.50 | 0.43 | 96 | 1012.6 |
| 20260503211047 | 56 | 184 | 2.0 | 5.0 | 0.00 | 0.51 | 0.43 | 96 | 1012.6 |
| 20260503210543 | 56 | 177 | 1.0 | 4.0 | 0.00 | 0.53 | 0.43 | 96 | 1012.5 |
| 20260503210046 | 56 | 183 | 2.0 | 4.0 | 0.00 | 0.56 | 0.43 | 96 | 1012.5 |
| 20260503205544 | 57 | 210 | 2.0 | 4.0 | 0.00 | 0.61 | 0.43 | 96 | 1012.5 |
| 20260503205042 | 57 | 206 | 3.0 | 5.0 | 0.00 | 0.67 | 0.43 | 96 | 1012.4 |
| 20260503204542 | 57 | 176 | 3.0 | 5.0 | 0.00 | 0.84 | 0.43 | 96 | 1012.3 |
| 20260503204043 | 57 | 166 | 3.0 | 5.0 | 0.00 | 1.08 | 0.43 | 96 | 1012.4 |
| 20260503203656 | 57 | 174 | 3.0 | 6.0 | 0.00 | 1.09 | 0.43 | 96 | 1012.4 |
| 20260503202044 | 57 | 163 | 3.0 | 7.0 | 0.00 | 1.09 | 0.43 | 96 | 1012.6 |
| 20260503201542 | 57 | 156 | 3.0 | 7.0 | 0.00 | 1.09 | 0.43 | 96 | 1012.6 |
| 20260503201041 | 57 | 166 | 4.0 | 8.0 | 0.00 | 1.09 | 0.43 | 96 | 1012.5 |
| 20260503200543 | 57 | 154 | 3.0 | 8.0 | 0.00 | 1.09 | 0.43 | 96 | 1012.4 |
| 20260503200042 | 57 | 169 | 3.0 | 5.0 | 0.00 | 1.09 | 0.43 | 96 | 1012.4 |
| 20260503195542 | 57 | 171 | 3.0 | 5.0 | 0.00 | 1.09 | 0.43 | 96 | 1012.5 |
| 20260503195044 | 57 | 172 | 3.0 | 5.0 | 0.00 | 1.09 | 0.43 | 96 | 1012.3 |
| 20260503194542 | 57 | 180 | 3.0 | 6.0 | 0.00 | 1.09 | 0.43 | 96 | 1012.4 |
| 20260503194043 | 57 | 168 | 3.0 | 6.0 | 0.01 | 1.09 | 0.43 | 96 | 1012.2 |
| 20260503193542 | 57 | 155 | 4.0 | 7.0 | 0.01 | 1.09 | 0.43 | 96 | 1012.1 |
| 20260503193043 | 57 | 162 | 4.0 | 8.0 | 0.02 | 1.09 | 0.43 | 96 | 1012.1 |
| 20260503192546 | 57 | 204 | 5.0 | 8.0 | 0.02 | 1.09 | 0.43 | 96 | 1012.0 |
| 20260503192042 | 57 | 171 | 5.0 | 9.0 | 0.02 | 1.09 | 0.43 | 96 | 1011.9 |
| 20260503191614 | 58 | 182 | 4.0 | 9.0 | 0.02 | 1.09 | 0.43 | 95 | 1011.8 |
| 20260503190545 | 58 | 178 | 5.0 | 9.0 | 0.02 | 1.09 | 0.43 | 95 | 1011.7 |
| 20260503190047 | 58 | 163 | 5.0 | 9.0 | 0.02 | 1.09 | 0.43 | 95 | 1011.7 |
| 20260503185542 | 58 | 169 | 4.0 | 8.0 | 0.02 | 1.09 | 0.43 | 95 | 1011.7 |
| 20260503185041 | 58 | 166 | 2.0 | 7.0 | 0.02 | 1.09 | 0.43 | 95 | 1011.7 |
| 20260503184542 | 59 | 162 | 2.0 | 5.0 | 0.02 | 1.09 | 0.43 | 95 | 1011.4 |
| 20260503184041 | 59 | 170 | 3.0 | 9.0 | 0.02 | 1.09 | 0.43 | 95 | 1011.4 |
| 20260503183542 | 59 | 150 | 4.0 | 9.0 | 0.02 | 1.09 | 0.43 | 95 | 1011.5 |
| 20260503183127 | 59 | 171 | 4.0 | 8.0 | 0.02 | 1.08 | 0.42 | 95 | 1011.5 |
| 20260503182038 | 59 | 187 | 4.0 | 8.0 | 0.02 | 1.08 | 0.42 | 95 | 1011.5 |
| 20260503181537 | 60 | 183 | 3.0 | 8.0 | 0.02 | 1.08 | 0.42 | 95 | 1011.5 |
| 20260503181038 | 60 | 173 | 3.0 | 7.0 | 0.02 | 1.08 | 0.42 | 95 | 1011.4 |
| 20260503180538 | 60 | 170 | 3.0 | 7.0 | 0.02 | 1.08 | 0.42 | 95 | 1011.5 |
| 20260503180041 | 60 | 150 | 3.0 | 6.0 | 0.01 | 1.07 | 0.41 | 95 | 1011.4 |
| 20260503175537 | 61 | 185 | 3.0 | 6.0 | 0.01 | 1.07 | 0.41 | 95 | 1011.5 |
| 20260503175038 | 61 | 180 | 3.0 | 6.0 | 0.01 | 1.07 | 0.41 | 95 | 1011.4 |
| 20260503174537 | 61 | 163 | 3.0 | 6.0 | 0.02 | 1.07 | 0.41 | 95 | 1011.4 |
| 20260503174036 | 61 | 145 | 3.0 | 6.0 | 0.03 | 1.07 | 0.41 | 95 | 1011.4 |
| 20260503173534 | 61 | 175 | 3.0 | 6.0 | 0.02 | 1.06 | 0.40 | 95 | 1011.5 |
| 20260503173035 | 61 | 172 | 2.0 | 6.0 | 0.03 | 1.06 | 0.40 | 95 | 1011.3 |
| 20260503172534 | 61 | 173 | 2.0 | 6.0 | 0.04 | 1.06 | 0.40 | 94 | 1011.2 |
| 20260503172030 | 61 | 207 | 2.0 | 4.0 | 0.04 | 1.06 | 0.40 | 94 | 1011.1 |
| 20260503171533 | 61 | 195 | 2.0 | 6.0 | 0.04 | 1.06 | 0.40 | 94 | 1011.0 |
| 20260503171032 | 61 | 207 | 2.0 | 6.0 | 0.04 | 1.06 | 0.40 | 94 | 1010.9 |
| 20260503170545 | 61 | 193 | 2.0 | 6.0 | 0.04 | 1.06 | 0.40 | 94 | 1011.0 |
| 20260503150514 | 61 | 179 | 1.0 | 4.0 | 0.09 | 1.02 | 0.36 | 97 | 1011.0 |
| 20260503131006 | 60 | 170 | 3.0 | 7.0 | 0.02 | 0.93 | 0.27 | 96 | 1011.7 |
| 20260503130504 | 60 | 174 | 3.0 | 7.0 | 0.02 | 0.93 | 0.27 | 96 | 1011.6 |
| 20260503090503 | 62 | 233 | 6.0 | 13.0 | 0.00 | 0.67 | 0.01 | 94 | 1011.8 |
| 20260503081509 | 61 | 208 | 2.0 | 6.0 | 0.00 | 0.67 | 0.01 | 97 | 1011.5 |
| 20260503081013 | 61 | 167 | 3.0 | 6.0 | 0.00 | 0.67 | 0.01 | 97 | 1011.6 |
| 20260503080530 | 61 | 185 | 3.0 | 6.0 | 0.00 | 0.67 | 0.01 | 97 | 1011.5 |
| 20260503072502 | 60 | 170 | 3.0 | 5.0 | 0.00 | 0.67 | 0.01 | 98 | 1011.3 |
| 20260503072004 | 60 | 180 | 3.0 | 7.0 | 0.00 | 0.67 | 0.01 | 98 | 1011.4 |
| 20260503071505 | 60 | 149 | 2.0 | 7.0 | 0.00 | 0.67 | 0.01 | 98 | 1011.3 |
| 20260503071003 | 60 | 162 | 3.0 | 7.0 | 0.00 | 0.67 | 0.01 | 98 | 1011.2 |
| 20260503070503 | 60 | 214 | 3.0 | 9.0 | 0.00 | 0.67 | 0.01 | 98 | 1011.1 |
| 20260503054951 | 58 | 130 | 1.0 | 4.0 | 0.00 | 0.68 | 0.01 | 98 | 1011.3 |
| 20260503054454 | 58 | 114 | 2.0 | 4.0 | 0.00 | 0.68 | 0.01 | 98 | 1011.3 |
| 20260503053950 | 58 | 114 | 1.0 | 4.0 | 0.00 | 0.68 | 0.01 | 98 | 1011.4 |
| 20260503053451 | 58 | 153 | 1.0 | 5.0 | 0.00 | 0.68 | 0.01 | 98 | 1011.4 |
| 20260503052953 | 58 | 127 | 1.0 | 5.0 | 0.00 | 0.68 | 0.01 | 98 | 1011.4 |
| 20260503052529 | 58 | 102 | 1.0 | 4.0 | 0.00 | 0.68 | 0.01 | 98 | 1011.5 |
| 20260503051451 | 57 | 131 | 0.0 | 2.0 | 0.00 | 0.68 | 0.01 | 98 | 1011.6 |
| 20260503050949 | 57 | 131 | 1.0 | 3.0 | 0.00 | 0.68 | 0.01 | 98 | 1011.5 |
| 20260503050448 | 57 | 131 | 1.0 | 3.0 | 0.00 | 0.68 | 0.01 | 98 | 1011.5 |
| 20260503045948 | 57 | 161 | 1.0 | 3.0 | 0.00 | 0.68 | 0.01 | 98 | 1011.6 |
| 20260503045447 | 57 | 112 | 1.0 | 3.0 | 0.00 | 0.68 | 0.01 | 98 | 1011.7 |
| 20260503045018 | 57 | 112 | 1.0 | 2.0 | 0.00 | 0.68 | 0.01 | 98 | 1011.6 |
| 20260503044111 | 57 | 112 | 1.0 | 2.0 | 0.00 | 0.68 | 0.01 | 98 | 1011.5 |